Regional Weather Roundup
Issued by NWS Cleveland, OH

Home | Current Version | Previous Version | Graphics & Text | Print | Product List | Glossary On
Versions: 1 2 3 4 5 6 7 8 9 10 11 12 13 14 15 16 17 18 19 20 21 22 23 24 25 26 27 28 29 30 31 32 33 34 35 36 37 38 39 40 41 42 43 44 45 46 47 48 49 50
000
ASUS41 KCLE 290110
RWRCLE
OHIO REGIONAL WEATHER ROUNDUP
NATIONAL WEATHER SERVICE CLEVELAND, OH
900 PM EDT THU AUG 28 2014

NOTE: "FAIR" INDICATES FEW OR NO CLOUDS BELOW 12,000 FEET WITH NO
SIGNIFICANT WEATHER AND/OR OBSTRUCTIONS TO VISIBILITY.

OHZ001>008-015>018-024>027-034-035-043-044-290200-
   NORTHWEST OHIO

CITY           SKY/WX    TMP DP  RH WIND       PRES   REMARKS
DEFIANCE       PTCLDY    69  59  70 SE6       30.11R
FINDLAY        PTCLDY    68  57  68 E8        30.12R
TOLEDO EXPRESS MOCLDY    65  56  72 E6        30.11R
TOLEDO EXEC    MOCLDY    65  56  72 E6        30.13R
LIMA           CLEAR     67  61  81 E5        30.12R
$$

OHZ009>014-019>023-028>033-038-089-290200-
   NORTHEAST OHIO

CITY           SKY/WX    TMP DP  RH WIND       PRES   REMARKS
CLE-HOPKINS    MOCLDY    64  50  60 N5        30.15R
CLE-LAKEFRONT  MOCLDY    66  50  56 E6        30.12R
CUY CO. ARPT   MOCLDY    61  54  77 SE5       30.14R
LORAIN-ELYRIA  PTCLDY    62  53  72 CALM      30.15R
ASHTABULA      CLEAR     55  53  93 CALM      30.14R
AKRON-CANTON   PTCLDY    60  48  64 N6        30.14R
WOOSTER        PTCLDY    58  52  80 N7        30.15R
MANSFIELD      PTCLDY    62  55  77 N6        30.14R
YOUNGSTOWN     MOCLDY    60  50  69 N7        30.14R
$$

OHZ042-051>053-060>062-070>072-077>081-290200-
  SOUTHWEST OHIO

CITY           SKY/WX    TMP DP  RH WIND       PRES   REMARKS
CINC-COVINGTON PTCLDY    78  62  57 E10       30.06R
CINC-LUNKEN    CLEAR     74  64  71 NE6       30.06R
HAMILTON       CLEAR     74  63  68 E7        30.07R
DAYTON         PTCLDY    72  62  71 E7        30.11R
WRIGHT-PAT AFB CLEAR     72  63  72 E8        30.10R
DAYTON GENERAL CLEAR     72  62  71 E6        30.09R
WILMINGTON     CLEAR     69  61  75 NE5       30.09R
$$

OHZ036-037-039>041-045>050-054>059-063>069-073>076-082>088-290200-
  CENTRAL AND SOUTHEAST OHIO

CITY           SKY/WX    TMP DP  RH WIND       PRES   REMARKS
COLUMBUS       MOCLDY    73  58  59 E3        30.10R
OSU AIRPORT    PTCLDY    69  59  70 NE5       30.11R
BOLTON FIELD   PTCLDY    69  60  72 CALM      30.11R
RICKENBACK AFB PTCLDY    71  56  60 E5        30.10R
NEWARK         CLEAR     64  59  83 CALM      30.11R
MARION         PTCLDY    63  57  81 NE7       30.13R
LANCASTER      PTCLDY    66  62  87 CALM      30.11R
ZANESVILLE     CLEAR     65  57  75 CALM      30.11R
NEW PHILLY     CLEAR     61  58  90 CALM      30.13R
$$


USA.gov is the U.S. government's official web portal to all federal, state and local government web resources and services.